Other Public Products
Issued by NWS Charleston, SC

Home | Current Version | Previous Version | Text Only | Print | Product List | Glossary On
Versions: 1 2 3 4 5 6 7 8 9 10 11 12 13 14 15 16 17 18 19 20 21 22 23 24 25 26 27 28 29 30 31 32 33 34 35 36 37 38 39 40 41 42 43 44 45 46 47 48 49 50
781
FPUS82 KCHS 260312
OPUCHS

TEST...KCHS/KSAV Gateway Observations...TEST
National Weather Service Charleston SC
1100 PM EDT SAT MAR 25 2017

NOTE: "fair" indicates few or no clouds below 12,000 feet with no
significant weather and/or obstructions to visibility.

SCZ050-WAZ558-NCZ071-TXZ119-213-PAZ071-DCZ001-FLZ074-172-MI076-
NYZ176-178-MAZ016-IL014-TNZ027-NJZ106-GAZ044-MD014-260400-

...Gateway Observations for Charleston International...

CITY           SKY/WX    TMP DP  RH WIND       PRES   REMARKS
Chas Airport   PTCLDY    59  55  87 CALM      30.23S
Seattle        CLOUDY    47  36  65 S3        30.07F
Charlotte      MOCLDY    66  49  54 S15       30.21S
Dallas DFW     PTCLDY    63  47  55 CALM      29.92R
Dallas Love    CLEAR     62  48  60 E5        29.93R
Philladelphia  PTCLDY    45  40  82 E13       30.34R
Wash National  CLOUDY    65  52  62 S8        30.18S
Baltimore      MOCLDY    56  50  80 E16       30.24R
Miami          PTCLDY    71  66  84 NE5       30.13S
Detroit        CLOUDY    41  36  82 E10       30.17F
Newark         CLOUDY    44  39  82 NE13      30.38R
Laguardia      CLOUDY    45  38  76 NE14      30.38R
J F K          CLOUDY    45  40  82 NE13      30.39R
Boston Logan   CLOUDY    36  32  85 NW8       30.42R WCI  30
Ft. Lauderdale MOCLDY    72  66  81 E16       30.12S
Chicago O`Hare LGT RAIN  46  43  89 NE8       29.98S FOG
Chicago Midway LGT RAIN  47  46  97 MISG      29.97S FOG
Houston Bush   CLEAR     65  55  70 CALM      29.94R
Houston Hobby  CLEAR     68  57  68 SE5       29.93R
Nashville      LGT RAIN  61  56  83 S15       30.02R
Atlanta        CLOUDY    68  50  52 SE8       30.11R

$$

GAZ044-118-TXZ119-213-NCZ071-DCZ001-MDZ014-506-PAZ021-071-NJZ106-
NYZ176-178-MAZ106-OHZ011-021-055-MIZ076-KYZ091-ILZ014-INZ047-
MNZ060-ONZ431-260400-

...Gateway Observations for Savannah International...

CITY           SKY/WX    TMP DP  RH WIND       PRES   REMARKS
Savannah Arpt  CLEAR     62  55  77 SE3       30.21S
Atlanta        CLOUDY    68  50  52 SE8       30.11R
Charlotte      MOCLDY    66  49  54 S15       30.21S
Dallas DFW     PTCLDY    63  47  55 CALM      29.92R
Houston Bush   CLEAR     65  55  70 CALM      29.94R
Wash National  CLOUDY    65  52  62 S8        30.18S
Wash Dulles    CLOUDY    67  50  54 SE5       30.17S
Baltimore      MOCLDY    56  50  80 E16       30.24R
Philadelphia   PTCLDY    45  40  82 E13       30.34R
Newark         CLOUDY    44  39  82 NE13      30.38R
Laguardia      CLOUDY    45  38  76 NE14      30.38R
J F K          CLOUDY    45  40  82 NE13      30.39R
Boston         CLOUDY    36  32  85 NW8       30.42R WCI  30
Pittsburg      CLOUDY    64  53  67 E7        30.13S
Akron          CLOUDY    56  47  71 E8        30.12F
Cleveland      CLOUDY    43  36  76 NE6       30.15F
Cincinnati     CLOUDY    67  50  54 SE9       30.01F
Columbus       CLOUDY    61  50  67 E3        30.05F
Detroit        CLOUDY    41  36  82 E10       30.17F
Chicago O`Hare LGT RAIN  46  43  89 NE8       29.98S FOG
Minneapolis    CLOUDY    40  34  79 E9        30.05F WCI  34
Indianapolis   LGT RAIN  60  57  89 SE7       29.98F
Toronto Canada LGT RAIN  36  32  87 E14G21    30.34F WCI  27

$$




USA.gov is the U.S. government's official web portal to all federal, state and local government web resources and services.